Flag for U.S.A. Weather past 2 weeks in Orlando, Florida, U.S.A.

Now
68 °F

Clear.


Feels Like: 68 °F
Forecast: 64 / 83 °F
Wind: 12 mph from West

Location: Orlando Executive Airport

Current Time: Apr 1, 2015 at 1:38:47 AM

Latest Report: Apr 1, 2015 at 12:53 AM


Visibility: 10 mi

Pressure: 30.11 "Hg

Humidity: 84%

Dew point: 63 °F

Location of OrlandoLocation

Historic Weather in Orlando — Graph

°F

Orlando temperature yesterday

Maximum temperature yesterday: 82 °F (at 3:53 PM)
Minimum temperature yesterday: 62 °F (at 4:53 AM)
Average temperature yesterday: 71 °F

Past Weeks' High & Low Weather Summary

 TemperatureHumidityPressure
High89 °F (Mar 21, 3:53 PM)100% (Mar 25, 7:53 AM)30.38 "Hg (Mar 25, 7:53 AM)
Low49 °F (Mar 30, 6:53 AM)25% (Mar 28, 3:53 PM)29.80 "Hg (Mar 27, 2:53 PM)
Average71 °F69%30.06 "Hg
* Reported Mar 16 11:53 PM — Mar 31 11:53 PM, Orlando, Weather by CustomWeather, © 2015

Note: Actual official high and low records may vary slightly from our data, if they occured in-between our weather recording intervals... More about our weather records

Advertising

Orlando weather history for previous 24 hours

 ConditionsComfort  
Time TempWeatherWind HumidityBarometerVisibility
11:53 PM
Tue, Mar 31
69 °FClear.7 mph79%30.11 "Hg10 mi
10:53 PM70 °FClear.8 mph76%30.11 "Hg10 mi
9:53 PM72 °FClear.9 mph68%30.11 "Hg10 mi
8:53 PM74 °FClear.10 mph62%30.09 "Hg10 mi
7:53 PM76 °FSunny.10 mph58%30.06 "Hg10 mi
6:53 PM79 °FSunny.13 mph50%30.05 "Hg10 mi
5:53 PM81 °FScattered clouds.15 mph45%30.04 "Hg9 mi
3:53 PM82 °FPassing clouds.9 mph44%30.06 "Hg10 mi
2:53 PM81 °FPassing clouds.9 mph47%30.09 "Hg10 mi
1:53 PM80 °FBroken clouds.5 mph52%30.12 "Hg10 mi
12:53 PM77 °FScattered clouds.8 mph62%30.15 "Hg10 mi
11:53 AM75 °FScattered clouds.6 mph64%30.17 "Hg10 mi
10:53 AM75 °FScattered clouds.10 mph64%30.18 "Hg10 mi
9:53 AM71 °FSunny.9 mph71%30.18 "Hg10 mi
8:53 AM67 °FSunny.8 mph81%30.17 "Hg10 mi
7:53 AM64 °FClear.8 mph84%30.16 "Hg10 mi
6:53 AM62 °FClear.6 mph86%30.15 "Hg10 mi
5:53 AM62 °FClear.6 mph83%30.13 "Hg10 mi
4:53 AM62 °FClear.7 mph83%30.14 "Hg10 mi
3:53 AM63 °FClear.7 mph78%30.14 "Hg10 mi
2:53 AM63 °FClear.9 mph75%30.16 "Hg10 mi
1:53 AM63 °FClear.7 mph75%30.17 "Hg10 mi
Weather by CustomWeather, © 2015

See weather overviewHow to use our weather pages